| time (UTC) | temp C | wind direction | speed KPH | gust KPH | rain 1hr cm | rain 24hr cm | rain mn cm | humidity % | barometer mb |
| 20260503212524 | 17 | 0.0 | 1.6 | 0.00 | 0.00 | 0.00 | 33 | 1013.3 | |
| 20260503211525 | 17 | 0.0 | 4.8 | 0.00 | 0.00 | 0.00 | 33 | 1013.4 | |
| 20260503210525 | 17 | 0.0 | 1.6 | 0.00 | 0.00 | 0.00 | 32 | 1013.3 | |
| 20260503205529 | 17 | 0.0 | 0.0 | 0.00 | 0.00 | 0.00 | 33 | 1013.3 | |
| 20260503204524 | 17 | 0.0 | 1.6 | 0.00 | 0.00 | 0.00 | 33 | 1013.4 | |
| 20260503203544 | 17 | 0.0 | 3.2 | 0.00 | 0.00 | 0.00 | 35 | 1013.5 | |
| 20260503202524 | 17 | 0.0 | 4.8 | 0.00 | 0.00 | 0.00 | 33 | 1013.5 | |
| 20260503201525 | 18 | 0.0 | 3.2 | 0.00 | 0.00 | 0.00 | 30 | 1013.6 | |
| 20260503200524 | 18 | 0.0 | 3.2 | 0.00 | 0.00 | 0.00 | 30 | 1013.8 | |
| 20260503195525 | 18 | 0.0 | 1.6 | 0.00 | 0.00 | 0.00 | 32 | 1014.2 | |
| 20260503194525 | 18 | 0.0 | 4.8 | 0.00 | 0.00 | 0.00 | 34 | 1014.3 | |
| 20260503193525 | 18 | 0.0 | 3.2 | 0.00 | 0.00 | 0.00 | 31 | 1014.4 | |
| 20260503192545 | 17 | 0.0 | 1.6 | 0.00 | 0.00 | 0.00 | 34 | 1014.7 | |
| 20260503191525 | 18 | 0.0 | 3.2 | 0.00 | 0.00 | 0.00 | 31 | 1014.7 | |
| 20260503190525 | 18 | 0.0 | 4.8 | 0.00 | 0.00 | 0.00 | 33 | 1014.9 | |
| 20260503185525 | 18 | 0.0 | 3.2 | 0.00 | 0.00 | 0.00 | 32 | 1015.0 | |
| 20260503184525 | 17 | 0.0 | 4.8 | 0.00 | 0.00 | 0.00 | 34 | 1015.2 | |
| 20260503183544 | 18 | 315 | 1.6 | 4.8 | 0.00 | 0.00 | 0.00 | 32 | 1015.3 |
| 20260503182524 | 18 | 0.0 | 1.6 | 0.00 | 0.00 | 0.00 | 33 | 1015.4 | |
| 20260503181524 | 18 | 293 | 1.6 | 3.2 | 0.00 | 0.00 | 0.00 | 33 | 1015.4 |
| 20260503180524 | 17 | 0.0 | 3.2 | 0.00 | 0.00 | 0.00 | 36 | 1015.5 | |
| 20260503175524 | 17 | 0.0 | 4.8 | 0.00 | 0.00 | 0.00 | 34 | 1015.5 | |
| 20260503174524 | 17 | 270 | 1.6 | 11.3 | 0.00 | 0.00 | 0.00 | 36 | 1015.5 |
| 20260503173524 | 17 | 0.0 | 3.2 | 0.00 | 0.00 | 0.00 | 33 | 1015.5 | |
| 20260503172525 | 16 | 0.0 | 4.8 | 0.00 | 0.00 | 0.00 | 33 | 1015.7 | |
| 20260503171605 | 16 | 0.0 | 6.4 | 0.00 | 0.00 | 0.00 | 36 | 1015.8 | |
| 20260503170544 | 17 | 270 | 1.6 | 4.8 | 0.00 | 0.00 | 0.00 | 35 | 1015.9 |
| 20260503150524 | 11 | 270 | 1.6 | 9.7 | 0.00 | 0.00 | 0.00 | 42 | 1016.8 |
| 20260503130525 | 8 | 0.0 | 9.7 | 0.00 | 0.00 | 0.00 | 59 | 1016.9 | |
| 20260503110524 | -17 | 0.0 | 0.0 | 0.00 | 0.00 | 0.00 | |||
| 20260503081025 | 6 | 0.0 | 0.0 | 0.00 | 0.00 | 0.00 | 65 | 1013.8 | |
| 20260503072106 | 7 | 0.0 | 3.2 | 0.00 | 0.00 | 0.00 | 60 | 1013.5 | |
| 20260503071025 | 7 | 0.0 | 1.6 | 0.00 | 0.00 | 0.00 | 59 | 1013.3 | |
| 20260503055025 | 8 | 0.0 | 4.8 | 0.00 | 0.00 | 0.00 | 57 | 1012.9 | |
| 20260503054025 | 8 | 0.0 | 3.2 | 0.00 | 0.00 | 0.00 | 57 | 1012.9 | |
| 20260503053045 | 9 | 0.0 | 3.2 | 0.00 | 0.00 | 0.00 | 57 | 1012.9 | |
| 20260503052025 | 9 | 0.0 | 1.6 | 0.00 | 0.00 | 0.00 | 56 | 1012.9 | |
| 20260503051025 | 9 | 0.0 | 1.6 | 0.00 | 0.00 | 0.00 | 56 | 1013.0 | |
| 20260503050025 | 10 | 0.0 | 1.6 | 0.00 | 0.00 | 0.00 | 56 | 1012.8 | |
| 20260503045025 | 10 | 0.0 | 3.2 | 0.00 | 0.00 | 0.00 | 56 | 1012.9 | |
| 20260503044025 | 10 | 0.0 | 1.6 | 0.00 | 0.00 | 0.00 | 55 | 1012.8 | |
| 20260503043025 | 10 | 0.0 | 1.6 | 0.00 | 0.00 | 0.00 | 55 | 1012.8 | |
| 20260503042025 | 10 | 0.0 | 3.2 | 0.00 | 0.00 | 0.00 | 55 | 1012.7 | |
| 20260503041025 | 10 | 0.0 | 1.6 | 0.00 | 0.00 | 0.00 | 55 | 1012.6 | |
| 20260503040033 | 10 | 0.0 | 1.6 | 0.00 | 0.00 | 0.00 | 55 | 1012.6 | |
| 20260503035024 | 11 | 0.0 | 3.2 | 0.00 | 0.00 | 0.00 | 55 | 1012.5 | |
| 20260503034025 | 11 | 0.0 | 4.8 | 0.00 | 0.00 | 0.00 | 55 | 1012.6 | |
| 20260503033025 | 11 | 0.0 | 1.6 | 0.00 | 0.00 | 0.00 | 55 | 1012.4 | |
| 20260503032026 | 11 | 0.0 | 3.2 | 0.00 | 0.00 | 0.00 | 55 | 1012.2 | |
| 20260503031025 | 11 | 0.0 | 1.6 | 0.00 | 0.00 | 0.00 | 56 | 1012.1 | |
| 20260503030025 | 11 | 0.0 | 1.6 | 0.00 | 0.00 | 0.00 | 56 | 1012.0 | |
| 20260503025024 | 11 | 0.0 | 1.6 | 0.00 | 0.00 | 0.00 | 57 | 1012.2 | |
| 20260503024025 | 11 | 0.0 | 1.6 | 0.00 | 0.00 | 0.00 | 56 | 1012.2 | |
| 20260503023026 | 11 | 0.0 | 0.0 | 0.00 | 0.00 | 0.00 | 55 | 1012.2 | |
| 20260503022025 | 11 | 0.0 | 1.6 | 0.00 | 0.00 | 0.00 | 55 | 1012.2 | |
| 20260503021025 | 11 | 0.0 | 1.6 | 0.00 | 0.00 | 0.00 | 55 | 1012.2 | |
| 20260503020025 | 11 | 0.0 | 0.0 | 0.00 | 0.00 | 0.00 | 56 | 1012.1 | |
| 20260503015025 | 11 | 0.0 | 0.0 | 0.00 | 0.00 | 0.00 | 57 | 1012.1 | |
| 20260503014025 | 11 | 0.0 | 0.0 | 0.00 | 0.00 | 0.00 | 57 | 1012.0 | |
| 20260503013025 | 11 | 0.0 | 0.0 | 0.00 | 0.00 | 0.00 | 56 | 1012.0 | |
| 20260503012025 | 11 | 0.0 | 0.0 | 0.00 | 0.00 | 0.00 | 55 | 1011.8 | |
| 20260503011025 | 11 | 0.0 | 0.0 | 0.00 | 0.00 | 0.00 | 56 | 1011.7 | |
| 20260503010025 | 11 | 0.0 | 0.0 | 0.00 | 0.00 | 0.00 | 55 | 1011.6 | |
| 20260503005024 | 12 | 0.0 | 0.0 | 0.00 | 0.00 | 0.00 | 55 | 1011.5 | |
| 20260503004024 | 12 | 0.0 | 0.0 | 0.00 | 0.00 | 0.00 | 51 | 1011.3 | |
| 20260503003025 | 12 | 0.0 | 0.0 | 0.00 | 0.00 | 0.00 | 49 | 1011.2 | |
| 20260503002026 | 12 | 0.0 | 0.0 | 0.00 | 0.00 | 0.00 | 50 | 1011.1 | |
| 20260503001025 | 12 | 0.0 | 1.6 | 0.00 | 0.00 | 0.00 | 49 | 1010.9 | |
| 20260503000024 | 12 | 0.0 | 1.6 | 0.00 | 0.00 | 0.00 | 48 | 1010.8 | |
| 20260502235025 | 13 | 0.0 | 0.0 | 0.00 | 0.00 | 0.00 | 49 | 1010.7 | |
| 20260502234024 | 13 | 0.0 | 1.6 | 0.00 | 0.00 | 0.00 | 49 | 1010.4 | |
| 20260502233025 | 13 | 0.0 | 1.6 | 0.00 | 0.00 | 0.00 | 45 | 1010.3 | |
| 20260502232024 | 13 | 0.0 | 4.8 | 0.00 | 0.00 | 0.00 | 45 | 1010.2 | |
| 20260502231025 | 13 | 0.0 | 3.2 | 0.00 | 0.00 | 0.00 | 45 | 1010.2 | |
| 20260502230024 | 13 | 0.0 | 3.2 | 0.00 | 0.00 | 0.00 | 44 | 1010.1 | |
| 20260502225024 | 13 | 0.0 | 4.8 | 0.00 | 0.00 | 0.00 | 45 | 1010.0 | |
| 20260502224026 | 14 | 0.0 | 1.6 | 0.00 | 0.00 | 0.00 | 44 | 1010.0 | |
| 20260502223024 | 14 | 0.0 | 3.2 | 0.00 | 0.00 | 0.00 | 45 | 1010.0 | |
| 20260502222024 | 14 | 0.0 | 1.6 | 0.00 | 0.00 | 0.00 | 46 | 1010.1 | |
| 20260502221024 | 14 | 0.0 | 4.8 | 0.00 | 0.00 | 0.00 | 43 | 1010.0 | |
| 20260502220024 | 14 | 0.0 | 4.8 | 0.00 | 0.00 | 0.00 | 45 | 1010.1 | |
| 20260502215045 | 15 | 0.0 | 3.2 | 0.00 | 0.00 | 0.00 | 43 | 1010.2 | |
| 20260502214025 | 15 | 203 | 1.6 | 4.8 | 0.00 | 0.00 | 0.00 | 42 | 1010.2 |
| 20260502213025 | 15 | 0.0 | 3.2 | 0.00 | 0.00 | 0.00 | 41 | 1010.2 |